TimeCDT,TemperatureF,Dew PointF,Humidity,Sea Level PressureIn,VisibilityMPH,Wind Direction,Wind SpeedMPH,Gust SpeedMPH,PrecipitationIn,Events,Conditions,WindDirDegrees,DateUTC
12:15 AM,45.9,38.1,74,30.01,10.0,West,3.5,-,N/A,,Clear,280,2012-10-02 05:15:00
12:35 AM,44.2,37.4,77,30.01,10.0,West,5.8,-,N/A,,Clear,270,2012-10-02 05:35:00
1:15 AM,43.0,37.0,80,30.01,10.0,West,4.6,-,N/A,,Clear,280,2012-10-02 06:15:00
1:35 AM,43.2,36.7,78,30.01,10.0,West,4.6,-,N/A,,Clear,270,2012-10-02 06:35:00
2:15 AM,42.4,36.0,78,30.01,10.0,West,4.6,-,N/A,,Clear,270,2012-10-02 07:15:00
2:35 AM,41.2,35.4,80,30.01,10.0,West,4.6,-,N/A,,Clear,280,2012-10-02 07:35:00
2:55 AM,39.9,34.7,82,30.01,10.0,West,5.8,-,N/A,,Clear,280,2012-10-02 07:55:00
3:15 AM,39.6,34.7,83,30.01,10.0,WNW,4.6,-,N/A,,Clear,290,2012-10-02 08:15:00
3:35 AM,39.2,34.3,83,30.00,10.0,West,5.8,-,N/A,,Clear,280,2012-10-02 08:35:00
3:55 AM,38.8,34.0,83,30.00,10.0,West,5.8,-,N/A,,Clear,280,2012-10-02 08:55:00
4:15 AM,37.4,33.6,86,30.00,10.0,West,4.6,-,N/A,,Clear,270,2012-10-02 09:15:00
4:35 AM,36.5,33.4,89,30.00,10.0,West,4.6,-,N/A,,Clear,270,2012-10-02 09:35:00
4:55 AM,36.3,32.9,87,30.00,10.0,West,5.8,-,N/A,,Clear,270,2012-10-02 09:55:00
5:35 AM,36.5,33.1,87,30.00,10.0,West,5.8,-,N/A,,Clear,280,2012-10-02 10:35:00
5:55 AM,36.0,33.3,90,30.00,10.0,West,8.1,-,N/A,,Clear,280,2012-10-02 10:55:00
6:15 AM,36.5,33.8,90,30.00,10.0,WNW,5.8,-,N/A,,Clear,290,2012-10-02 11:15:00
6:35 AM,35.6,33.1,91,30.00,10.0,WNW,5.8,-,N/A,,Clear,290,2012-10-02 11:35:00
6:55 AM,35.1,33.1,92,30.00,10.0,WNW,5.8,-,N/A,,Clear,290,2012-10-02 11:55:00
7:15 AM,34.0,32.4,94,30.00,10.0,WNW,4.6,-,N/A,,Clear,290,2012-10-02 12:15:00
7:35 AM,33.8,32.2,94,30.00,10.0,WNW,4.6,-,N/A,,Clear,290,2012-10-02 12:35:00
7:55 AM,34.2,32.5,94,30.00,7.0,WNW,3.5,-,N/A,,Clear,290,2012-10-02 12:55:00
8:15 AM,36.7,35.1,94,30.01,7.0,WNW,4.6,-,N/A,,Clear,290,2012-10-02 13:15:00
8:35 AM,39.9,37.0,89,30.01,10.0,WNW,5.8,-,N/A,,Clear,290,2012-10-02 13:35:00
8:55 AM,42.8,38.3,84,30.01,10.0,West,5.8,-,N/A,,Clear,280,2012-10-02 13:55:00
9:15 AM,46.0,38.8,76,30.01,10.0,West,4.6,-,N/A,,Clear,280,2012-10-02 14:15:00
9:35 AM,49.1,38.7,67,30.01,10.0,WNW,6.9,-,N/A,,Clear,290,2012-10-02 14:35:00
9:55 AM,52.0,39.0,61,30.01,10.0,West,6.9,-,N/A,,Clear,280,2012-10-02 14:55:00
10:15 AM,54.5,38.1,54,30.01,10.0,West,5.8,-,N/A,,Clear,280,2012-10-02 15:15:00
10:35 AM,57.2,37.6,48,30.01,10.0,West,4.6,-,N/A,,Clear,260,2012-10-02 15:35:00
10:55 AM,59.9,36.7,42,30.01,10.0,Calm,Calm,-,N/A,,Clear,0,2012-10-02 15:55:00
11:15 AM,62.2,37.2,39,30.00,10.0,Calm,Calm,-,N/A,,Clear,0,2012-10-02 16:15:00
11:35 AM,63.5,36.5,37,30.00,10.0,Calm,Calm,-,N/A,,Clear,0,2012-10-02 16:35:00
11:55 AM,65.5,36.5,34,29.99,10.0,Calm,Calm,-,N/A,,Clear,0,2012-10-02 16:55:00
12:15 PM,66.9,34.5,30,29.98,10.0,SW,4.6,-,N/A,,Clear,230,2012-10-02 17:15:00
12:35 PM,67.1,32.2,27,29.97,10.0,SSW,3.5,-,N/A,,Clear,200,2012-10-02 17:35:00
12:55 PM,68.4,31.5,25,29.96,10.0,South,5.8,-,N/A,,Clear,190,2012-10-02 17:55:00
1:15 PM,69.1,29.7,23,29.96,10.0,SSW,3.5,-,N/A,,Clear,210,2012-10-02 18:15:00
1:35 PM,70.3,28.8,21,29.94,10.0,WSW,4.6,-,N/A,,Clear,250,2012-10-02 18:35:00
1:55 PM,70.7,29.3,21,29.93,10.0,West,5.8,-,N/A,,Clear,270,2012-10-02 18:55:00
2:15 PM,71.8,30.4,22,29.92,10.0,WSW,8.1,-,N/A,,Clear,250,2012-10-02 19:15:00
2:35 PM,71.1,30.6,22,29.91,10.0,West,4.6,-,N/A,,Clear,270,2012-10-02 19:35:00
2:55 PM,73.0,29.8,20,29.90,10.0,NW,3.5,-,N/A,,Clear,320,2012-10-02 19:55:00
3:15 PM,73.8,28.8,19,29.89,10.0,Calm,Calm,-,N/A,,Clear,0,2012-10-02 20:15:00
3:35 PM,73.8,27.1,18,29.89,10.0,SSE,4.6,-,N/A,,Clear,150,2012-10-02 20:35:00
3:55 PM,74.3,27.1,17,29.88,10.0,SSE,4.6,-,N/A,,Clear,160,2012-10-02 20:55:00
4:15 PM,75.2,28.0,18,29.87,10.0,Calm,Calm,-,N/A,,Clear,0,2012-10-02 21:15:00
4:35 PM,74.5,27.0,17,29.87,10.0,SSW,4.6,-,N/A,,Clear,200,2012-10-02 21:35:00
4:55 PM,75.0,27.5,17,29.86,10.0,SSW,4.6,-,N/A,,Clear,200,2012-10-02 21:55:00
5:15 PM,74.5,26.4,17,29.86,10.0,SSW,3.5,-,N/A,,Clear,200,2012-10-02 22:15:00
5:35 PM,74.3,27.1,17,29.86,10.0,South,4.6,-,N/A,,Clear,180,2012-10-02 22:35:00
5:55 PM,73.8,26.6,17,29.86,10.0,SW,3.5,-,N/A,,Clear,220,2012-10-02 22:55:00
6:15 PM,73.0,27.5,18,29.87,10.0,South,4.6,-,N/A,,Clear,170,2012-10-02 23:15:00
6:35 PM,71.4,28.0,20,29.87,10.0,SSE,3.5,-,N/A,,Clear,160,2012-10-02 23:35:00
7:15 PM,65.7,30.7,27,29.86,10.0,SE,4.6,-,N/A,,Clear,140,2012-10-03 00:15:00
7:35 PM,61.3,30.2,31,29.86,10.0,SSE,4.6,-,N/A,,Clear,150,2012-10-03 00:35:00
7:55 PM,60.4,31.1,33,29.86,10.0,SE,4.6,-,N/A,,Clear,140,2012-10-03 00:55:00
8:15 PM,59.4,30.0,33,29.86,10.0,SSE,3.5,-,N/A,,Clear,150,2012-10-03 01:15:00
8:35 PM,57.4,29.3,34,29.87,10.0,SSE,3.5,-,N/A,,Clear,150,2012-10-03 01:35:00
8:55 PM,57.2,29.7,35,29.87,10.0,SSE,3.5,-,N/A,,Clear,150,2012-10-03 01:55:00
9:15 PM,55.4,29.5,37,29.87,10.0,SE,4.6,-,N/A,,Clear,140,2012-10-03 02:15:00
9:35 PM,56.8,29.3,35,29.88,10.0,SSE,3.5,-,N/A,,Clear,150,2012-10-03 02:35:00
9:55 PM,53.8,29.3,39,29.88,10.0,SE,3.5,-,N/A,,Clear,140,2012-10-03 02:55:00
10:15 PM,55.0,29.8,38,29.88,10.0,SSE,3.5,-,N/A,,Clear,150,2012-10-03 03:15:00
10:35 PM,55.2,29.8,38,29.88,10.0,SSE,3.5,-,N/A,,Clear,150,2012-10-03 03:35:00
10:55 PM,54.5,29.7,39,29.88,10.0,SSE,4.6,-,N/A,,Clear,160,2012-10-03 03:55:00
11:15 PM,53.1,29.1,40,29.88,10.0,SSE,4.6,-,N/A,,Clear,160,2012-10-03 04:15:00
11:35 PM,53.6,29.1,39,29.89,10.0,SSE,3.5,-,N/A,,Clear,150,2012-10-03 04:35:00
11:55 PM,55.8,28.9,36,29.88,10.0,SE,3.5,-,N/A,,Clear,140,2012-10-03 04:55:00